This is the latest recevied weather packets stored in our database for station/object KC5TIL. If no packets are shown the sender has not sent any weather packets the latest 10 day(s).
| Time | Temp. | Humidity | Pressure | Rain* | Wind** | Luminosity | Snow |
|---|---|---|---|---|---|---|---|
| 1777917401 | 25.56° C | 60% | 1011.8 hPa | 0 mm | - | 747 W/m² | - |
| 1777917097 | 26.67° C | 58% | 1011.9 hPa | 0 mm | - | 674 W/m² | - |
| 1777916796 | 26.67° C | 57% | 1012.2 hPa | 0 mm | - | 397 W/m² | - |
| 1777916492 | 26.11° C | 59% | 1012 hPa | 0 mm | - | 678 W/m² | - |
| 1777916189 | 25.56° C | 58% | 1012.1 hPa | 0 mm | - | 764 W/m² | - |
| 1777915887 | 26.11° C | 60% | 1012.3 hPa | 0 mm | - | 748 W/m² | - |
| 1777915583 | 25.56° C | 60% | 1012.4 hPa | 0 mm | - | 746 W/m² | - |
| 1777915280 | 26.11° C | 58% | 1012.3 hPa | 0 mm | - | 763 W/m² | - |
| 1777914976 | 25.56° C | 61% | 1012.4 hPa | 0 mm | - | 778 W/m² | - |
| 1777914674 | 25.56° C | 60% | 1012.7 hPa | 0 mm | - | 785 W/m² | - |
| 1777914369 | 25° C | 61% | 1012.5 hPa | 0 mm | - | 781 W/m² | - |
| 1777914067 | 25° C | 60% | 1012.8 hPa | 0 mm | - | 790 W/m² | - |
| 1777913763 | 25° C | 59% | 1012.9 hPa | 0 mm | - | 822 W/m² | - |
| 1777913459 | 25° C | 60% | 1013.1 hPa | 0 mm | - | 796 W/m² | - |
| 1777913156 | 25° C | 59% | 1013.2 hPa | 0 mm | - | 753 W/m² | - |
| 1777912852 | 25° C | 59% | 1013.4 hPa | 0 mm | - | 741 W/m² | - |
| 1777912549 | 25° C | 60% | 1013.4 hPa | 0 mm | - | 782 W/m² | - |
| 1777912245 | 25° C | 60% | 1013.1 hPa | 0 mm | - | 829 W/m² | - |
| 1777911942 | 24.44° C | 60% | 1013.3 hPa | 0 mm | - | 862 W/m² | - |
| 1777911638 | 24.44° C | 60% | 1013.4 hPa | 0 mm | - | 871 W/m² | - |
| 1777911334 | 24.44° C | 59% | 1013.5 hPa | 0 mm | - | 871 W/m² | - |
| 1777911032 | 25° C | 58% | 1013.5 hPa | 0 mm | - | 874 W/m² | - |
| 1777910729 | 24.44° C | 59% | 1013.5 hPa | 0 mm | - | 835 W/m² | - |
| 1777910426 | 24.44° C | 59% | 1013.5 hPa | 0 mm | - | 844 W/m² | - |
| 1777910122 | 23.89° C | 60% | 1013.5 hPa | 0 mm | - | 825 W/m² | - |
* Rain latest hour (hover to see other rain measurements)
** Current wind speed in m/s (hover to see current wind gust speed)